This is the latest recevied weather packets stored in our database for station/object KC1TEM-13. If no packets are shown the sender has not sent any weather packets the latest 10 day(s).
| Time | Temp. | Humidity | Pressure | Rain* | Wind** | Luminosity | Snow |
|---|---|---|---|---|---|---|---|
| 1777549156 | 7.22° C | 98% | 1008.4 hPa | 0 mm | - | 53 W/m² | - |
| 1777548852 | 6.67° C | 98% | 1008.3 hPa | 0.51 mm | - | 46 W/m² | - |
| 1777548549 | 6.67° C | 98% | 1008.4 hPa | 0.51 mm | - | 49 W/m² | - |
| 1777548246 | 6.67° C | 98% | 1008.5 hPa | 0 mm | - | 42 W/m² | - |
| 1777547943 | 6.67° C | 98% | 1008.7 hPa | 0 mm | - | 34 W/m² | - |
| 1777547639 | 6.67° C | 98% | 1008.7 hPa | 0 mm | - | 32 W/m² | - |
| 1777547335 | 6.67° C | 98% | 1008.8 hPa | 0 mm | - | 30 W/m² | - |
| 1777547033 | 6.67° C | 98% | 1008.9 hPa | 0.51 mm | - | 29 W/m² | - |
| 1777546730 | 6.67° C | 98% | 1009 hPa | 0 mm | - | 24 W/m² | - |
| 1777546427 | 6.67° C | 98% | 1009 hPa | 0 mm | - | 27 W/m² | - |
| 1777546124 | 6.67° C | 98% | 1009 hPa | 0.51 mm | - | 24 W/m² | - |
| 1777545819 | 6.67° C | 98% | 1008.9 hPa | 0.51 mm | - | 22 W/m² | - |
| 1777545517 | 6.67° C | 98% | 1009 hPa | 0.51 mm | - | 20 W/m² | - |
| 1777545213 | 6.67° C | 98% | 1008.7 hPa | 0.51 mm | - | 19 W/m² | - |
| 1777544912 | 6.67° C | 98% | 1008.8 hPa | 0 mm | - | 18 W/m² | - |
| 1777544607 | 6.67° C | 98% | 1008.7 hPa | 0.51 mm | - | 11 W/m² | - |
| 1777544304 | 6.67° C | 98% | 1008.6 hPa | 0.51 mm | - | 9 W/m² | - |
| 1777544001 | 6.67° C | 98% | 1008.6 hPa | 0 mm | - | 9 W/m² | - |
| 1777543698 | 6.67° C | 98% | 1008.6 hPa | 0.51 mm | - | 7 W/m² | - |
| 1777543394 | 6.67° C | 98% | 1008.9 hPa | 0.51 mm | - | 4 W/m² | - |
| 1777543089 | 6.67° C | 98% | 1008.8 hPa | 0 mm | - | 3 W/m² | - |
| 1777542786 | 6.67° C | 98% | 1008.9 hPa | 0 mm | - | 2 W/m² | - |
| 1777542483 | 6.67° C | 98% | 1008.8 hPa | 0 mm | - | 1 W/m² | - |
| 1777542179 | 6.67° C | 98% | 1008.8 hPa | 0 mm | - | 1 W/m² | - |
| 1777541876 | 6.67° C | 98% | 1008.6 hPa | 0 mm | - | 0 W/m² | - |
* Rain latest hour (hover to see other rain measurements)
** Current wind speed in m/s (hover to see current wind gust speed)